{"data":{"norad_id":68994,"epoch":"2026-09-20T04:13:30.689760Z","epoch_age_seconds":47345,"freshness":"FRESH","line1":"1 68994U 26100Q   26263.17604965  .00000627  00000+0  66062-4 0  9990","line2":"2 68994  97.7201 158.9280 0002060  52.5170 307.6236 14.92761150 20875","mean_motion":14.9276115,"eccentricity":0.000206,"inclination_deg":97.7201,"raan_deg":158.928,"arg_perigee_deg":52.517,"mean_anomaly_deg":307.6236,"bstar":6.6062e-5,"rev_number":2087,"period_min":96.465533015781,"perigee_km":587.89531713951,"apogee_km":590.76591379709,"semimajor_km":6967.4676154683,"source":"CELESTRAK","updated_at":"2026-09-20T09:00:24.623247Z"}}